Syracuse, NY

9:54 PM EST on December 08, 2019 (GMT -0500)
Syracuse Hancock International

Weather History for KSYR - October, 2019

Change the Weather History Date:

Monday, October 7, 2019

  Actual Average Record
Temperature  
Mean Temperature 59 °F 54 °F  
Max Temperature 63 °F 63 °F 87 °F (1963)
Min Temperature 54 °F 44 °F 26 °F (1964)
Degree Days  
Heating Degree Days 6 12  
Month to date heating degree days 66 75  
Since 1 July heating degree days 141 242  
Cooling Degree Days 0 0  
Month to date cooling degree days 11 0  
Year to date cooling degree days 622 565  
Growing Degree Days 9 (Base 50)    
Moisture  
Dew Point 56 °F    
Average Humidity 88    
Maximum Humidity 93    
Minimum Humidity 78    
Precipitation  
Precipitation 1.24 in 0.12 in 2.00 in (1959)
Month to date precipitation 1.57 0.81  
Year to date precipitation 35.70 29.09  
Snow  
Snow 0.00 in 0.00 in T in (2001)
Month to date snowfall 0.0 0.0  
Since 1 July snowfall T 0.0  
Since 1 September snowfall T 0.0  
Snow Depth 0.00 in    
Sea Level Pressure  
Sea Level Pressure 30.10 in    
Wind  
Wind Speed 6 mph ()    
Max Wind Speed 17 mph    
Max Gust Speed 24 mph    
Visibility 7.0 miles    
Events Rain    
T = Trace of Precipitation, MM = Missing Value Source: Averaged Metar Reports

Daily Weather History Graph

Daily Weather History Graph

Search for Another Location

Airport or City:

Astronomy

Oct. 07, 2019 Rise Set
Actual Time 7:08 AM EDT 6:35 PM EDT
Civil Twilight 6:39 AM EDT 7:03 PM EDT
Nautical Twilight 6:07 AM EDT 7:36 PM EDT
Astronomical Twilight 5:33 AM EDT 8:09 PM EDT
Moon 4:06 PM EDT (10/7) 12:47 AM EDT (10/7)
Length of Visible Light 12h 23m
Length of Day
11h 27m
Waxing Gibbous, 69% of the Moon is Illuminated
Oct 7
Waxing Gibbous
Oct 13
Full
Oct 21
Last Quarter
Oct 27
New
Nov 4
First Quarter

Hourly Weather History & Observations

Time (EDT) Temp. Dew Point Humidity Pressure Visibility Wind Dir Wind Speed Gust Speed Precip Events Conditions
12:44 AM 64.0 °F 60.1 °F 87% 30.05 in 4.0 mi WSW 4.6 mph - 0.07 in Rain Rain
12:54 AM 64.0 °F 60.1 °F 87% 30.06 in 3.0 mi WSW 8.1 mph - 0.08 in Rain Rain
1:01 AM 63.0 °F 60.1 °F 90% 30.07 in 1.8 mi West 8.1 mph - 0.07 in Rain Heavy Rain
1:09 AM 63.0 °F 60.1 °F 90% 30.07 in 1.8 mi WNW 10.4 mph - 0.16 in Rain Heavy Rain
1:33 AM 63.0 °F 59.0 °F 87% 30.08 in 3.0 mi SW 13.8 mph 24.2 mph 0.46 in Rain Rain
1:39 AM 63.0 °F 60.1 °F 90% 30.07 in 4.0 mi WSW 15.0 mph - 0.48 in Rain Heavy Rain
1:54 AM 62.1 °F 57.9 °F 86% 30.07 in 7.0 mi WSW 11.5 mph - 0.51 in Rain Light Rain
2:54 AM 60.1 °F 57.0 °F 90% 30.06 in 10.0 mi SW 5.8 mph - 0.03 in Rain Light Rain
3:08 AM 60.1 °F 57.0 °F 90% 30.07 in 10.0 mi WSW 5.8 mph - 0.00 in Rain Light Rain
3:54 AM 60.1 °F 57.0 °F 90% 30.06 in 7.0 mi SSW 3.5 mph - 0.02 in Rain Light Rain
4:29 AM 60.1 °F 57.0 °F 90% 30.07 in 8.0 mi Calm Calm - 0.03 in Rain Light Rain
4:54 AM 59.0 °F 57.0 °F 93% 30.08 in 7.0 mi WSW 6.9 mph - 0.05 in Rain Light Rain
5:00 AM 59.0 °F 57.0 °F 93% 30.09 in 6.0 mi WSW 8.1 mph - 0.01 in Rain Rain
5:23 AM 59.0 °F 57.0 °F 93% 30.09 in 8.0 mi West 5.8 mph - 0.03 in Rain Light Rain
5:54 AM 59.0 °F 55.0 °F 87% 30.08 in 5.0 mi West 6.9 mph - 0.06 in Rain Rain
6:07 AM 57.9 °F 55.9 °F 93% 30.08 in 3.0 mi NW 4.6 mph - 0.05 in Rain Heavy Rain
6:43 AM 57.9 °F 55.9 °F 93% 30.08 in 5.0 mi Calm Calm - 0.12 in Rain Rain
6:54 AM 57.9 °F 55.9 °F 93% 30.09 in 5.0 mi West 5.8 mph - 0.14 in Rain Rain
6:59 AM 57.9 °F 55.9 °F 93% 30.10 in 5.0 mi West 6.9 mph - 0.01 in Rain Light Rain
7:26 AM 57.9 °F 55.9 °F 93% 30.10 in 4.0 mi West 4.6 mph - 0.06 in Rain Rain
7:54 AM 57.9 °F 55.9 °F 93% 30.10 in 5.0 mi West 5.8 mph - 0.12 in Rain Light Rain
8:27 AM 57.9 °F 55.0 °F 90% 30.12 in 3.0 mi WNW 6.9 mph - 0.07 in Rain Rain
8:54 AM 57.0 °F 55.0 °F 93% 30.12 in 3.0 mi NW 4.6 mph - 0.13 in Rain Rain
9:19 AM 57.0 °F 55.0 °F 93% 30.13 in 7.0 mi WNW 3.5 mph - 0.04 in Rain Light Rain
9:54 AM 57.0 °F 55.0 °F 93% 30.12 in 9.0 mi Calm Calm - 0.07 in Rain Light Rain
10:02 AM 57.0 °F 55.0 °F 93% 30.12 in 7.0 mi SW 3.5 mph - 0.00 in Rain Light Rain
10:54 AM 57.9 °F 55.0 °F 90% 30.12 in 10.0 mi SW 6.9 mph - 0.01 in Rain Light Rain
11:54 AM 60.1 °F 55.0 °F 83% 30.12 in 10.0 mi WSW 8.1 mph - 0.02 in   Overcast
12:54 PM 60.1 °F 55.0 °F 83% 30.10 in 10.0 mi SSW 5.8 mph - 0.00 in Rain Light Rain
1:54 PM 60.1 °F 55.0 °F 83% 30.10 in 10.0 mi SW 5.8 mph - 0.00 in Rain Light Rain
2:54 PM 60.1 °F 53.1 °F 78% 30.09 in 10.0 mi SSW 6.9 mph - 0.00 in   Overcast
3:54 PM 59.0 °F 53.1 °F 81% 30.09 in 10.0 mi SSW 6.9 mph - N/A   Overcast
4:54 PM 59.0 °F 54.0 °F 83% 30.09 in 10.0 mi South 4.6 mph - N/A   Overcast
5:54 PM 57.9 °F 53.1 °F 84% 30.10 in 10.0 mi South 4.6 mph - N/A   Overcast
6:54 PM 57.0 °F 52.0 °F 83% 30.12 in 10.0 mi South 5.8 mph - N/A   Overcast
7:54 PM 57.0 °F 52.0 °F 83% 30.13 in 10.0 mi SSW 4.6 mph - N/A   Overcast
8:54 PM 57.0 °F 52.0 °F 83% 30.16 in 10.0 mi SW 5.8 mph - N/A   Overcast
9:54 PM 57.0 °F 52.0 °F 83% 30.17 in 10.0 mi SW 6.9 mph - N/A   Overcast
10:54 PM 55.0 °F 51.1 °F 86% 30.18 in 10.0 mi SW 3.5 mph - N/A   Overcast
11:54 PM 55.0 °F 51.1 °F 86% 30.20 in 10.0 mi West 4.6 mph - N/A   Overcast